Location: B�rgermoos
(47.6500°N, 9.0667°E)
Time: 09:05:52
(UTC+00:00)

CZ-2C R/B - Pass Details

Date: 18 September 2020
Orbit: 640 x 704 km, 98.4° (Epoch: 27 October)

Event Time Altitude Azimuth Distance (km) Brightness Sun altitude
Rises 19:58:52 0° 13° (NNE) 2,962 7.3 -24.7°
Reaches altitude 10° 20:01:04 10° 12° (NNE) 2,051 6.5 -25.0°
Enters shadow 20:05:30 80° 293° (WNW) 665 3.6 -25.6°
